Showing default

BEIDOU 1D, 30323

Orbit data source: Space-Track

BEIDOU 1D, 30323 is a payload satellite owned by CNSA (CN) in GEO that was launched on Fri, 02 Feb 2007 UTC via a CHANG ZHENG 3A launch vehicle from the Xichang Space Center, China (XSC). Payloads include a variety of satellites, spacecraft, and rockets equipped with specific instruments for various scientific and technological missions. These include communications satellites like Starlink; space stations such as the ISS; scientific satellites like the Hubble; Earth observation satellites from companies like Planet Labs, Umbra, and HawkEye 360; GPS; miniature CubeSats for education and research; and military/defense satellites.

Loading next visibility...
BEIDOU 1D details
Identifier
30323, 2007-003A
Orbit
GEO
Last TLE update8 hours ago
Origin
Flag of CNCNSA (CN / PRC)
ManufacturerCAST
MissionNon-operational Defense Navigation
Bus & MotorDFH-3, FY-25
Mass2,299 kg wet, 1,300 kg dry
Launch date (UTC)
2007-02-02 (18 years ago)
Launch vehicle
CHANG ZHENG 3A
Launch site
Xichang Space Center, China (XSC)
Object type
Payload
Rocket body
Debris
Shape & HBRBox + 2 Pan, 18 m
Radar Cross Section13.998 m², Large (>1 m²)

Expand to show TLE details & history

TLE from 8 hours ago
0 BEIDOU 1D
1 30323U 07003A   24361.51868186 -.00000191  00000-0  00000-0 0  9992
2 30323   8.6203  62.4971 0056965 256.2919 269.9636  0.99156004 65372
Epoch: 2024-12-26T12:26Z
Definitive object data (Epoch: 2024-12-26T12:26:54.112Z)
Latitude2.12706°
Longitude-53.96418°
Altitude36,101.946 km
Speed3.063 km/s
True Right ascension15h 13m 01s
True Declination2° 07' 30"
Sunlit
Object was in daylight at TLE epoch
Visualization TLE readout
Latitude-7.95064°
Longitude73.44023°
Altitude35,909.444 km
Speed3.077 km/s
Apparent Right ascension00h 05m 01s
Apparent Declination-14° 16' 19"
Sunlit
Object is in daylight
Visualization observer readout
Local Sidereal Time20:19:14
Azimuth123.413° SE
Elevation14.635°
Doppler factor1
Orbital elements
Apogee altitude36,345.342 km
Perigee altitude35,861.351 km
Semi-major axis42,481.483 km
Eccentricity0.0056965
Inclination8.6203°
RAAN62.4971°
Arg. of periapsis256.2919°
True anomaly269.31085°
Mean anomaly269.9636°
Eccentric anomaly269.63722°
Mean motion0.24788 °/min
BSTARUnknown
Orbital period1452.31 mins
Loading historical data...
30323 neighbors
Authenticating...
Loading maneuver chart data...
Loading historical data...
Loading historical data...
Loading historical data...
Loading historical data...
Loading historical data...
Loading historical data...
Loading historical data...

BEIDOU 1D Visibility forecast

Observer location: undefined°, undefined

Span
Click to sort rows by Start time (UTC) header in descending order
Start Az.
Max El. time (UTC)
Max El. Az.
Max El.
End time (UTC)
End Az.
1440 mins2024-12-26 20:56:20.018Z123.426° SE2024-12-27 07:51:20.018Z112.631° SE26.206°2024-12-27 20:56:20.018Z126.971° SE
|